Terug naar catalogus

STARLINK-37219

ActiefCommunicatieSSO
NORAD 68843·PAYLOAD·🇺🇸 United States

Gelanceerd Apr 26, 2026 vanaf Vandenberg Space Force Base

Loading…

Volgende Passages (komende 24 uur)

TLE

VersSource: CelesTrak SupGP

Epoch: Sep 14, 2026, 21:30 UTC

1 68843C 26094E   26257.89631944  .00042467  00000+0  13185-2 0  2575
2 68843  97.2836 274.1414 0001456  89.2010  62.8409 15.33412907    10

Volg STARLINK-37219 in realtime met AllMySat

Download on the App Store